This demonstration page uses our WeatherBlox Daily Observations layout. Learn more.

Left ArrowRight Arrow

34.74481, -87.66753

Hourly Observations for April 15, 2015

Temp ( °F °C ) Dew Point ( °F °C ) Humidity (%) Winds ( mph kmh ) Pressure ( in mb ) Visibility ( mi km ) Precip ( " mm )
12:11 am 00:11 Cloudy 64 17.8 59 15 84 84 Calm 30.00 1016 N/A 0.00 0.00
12:26 am 00:26 Cloudy 64 17.8 60 15.6 87 87 N 3 6 30.00 1016 N/A 0.00 0.00
12:53 am 00:53 Cloudy with Light Rain 63 17.2 59 15 87 87 NE 6 9 30.01 1016 N/A 0.01 0.25
1:25 am 01:25 Cloudy 62 16.7 59 15 90 90 NE 6 9 30.00 1016 N/A 0.02 0.51
1:50 am 01:50 Cloudy 63 17 59 15 88 88 VRB 3 6 30.00 1016 N/A 0.02 0.51
1:53 am 01:53 Cloudy 62 16.7 59 15 90 90 Calm 30.00 1016 N/A 0.02 0.51
2:53 am 02:53 Cloudy 62 16.7 59 15 90 90 ENE 3 6 30.00 1016 N/A 0.00 0.00
3:53 am 03:53 Cloudy 62 16.7 59 15 90 90 Calm 29.98 1015 N/A 0.00 0.00
4:26 am 04:26 Cloudy 62 16.7 59 15 90 90 Calm 29.97 1015 N/A 0.00 0.00
4:36 am 04:36 Cloudy 62 16.7 59 15 90 90 E 3 6 29.97 1015 N/A 0.00 0.00
4:53 am 04:53 Cloudy 62 16.7 59 15 90 90 ESE 3 6 29.99 1016 N/A 0.00 0.00
5:37 am 05:37 Cloudy 62 16.7 59 15 90 90 E 3 6 29.97 1015 N/A 0.00 0.00
5:53 am 05:53 Cloudy 62 16.7 59 15 90 90 E 3 6 29.99 1016 N/A 0.00 0.00
6:53 am 06:53 Cloudy 62 16.7 60 15.6 93 93 E 3 6 30.01 1016 N/A 0.00 0.00
7:53 am 07:53 Cloudy 63 17.2 61 16.1 93 93 ESE 3 6 30.02 1017 N/A 0.00 0.00
8:53 am 08:53 Cloudy 65 18.3 62 16.7 90 90 S 3 6 30.04 1017 N/A 0.00 0.00
9:04 am 09:04 Cloudy 66 18.9 62 16.7 87 87 Calm 30.00 1016 N/A 0.00 0.00
9:12 am 09:12 Cloudy 66 18.9 62 16.7 87 87 Calm 30.00 1016 N/A 0.00 0.00
9:44 am 09:44 Cloudy 67 19.4 63 17.2 87 87 S 3 6 30.03 1017 N/A 0.00 0.00
9:53 am 09:53 Cloudy 67 19.4 63 17.2 87 87 S 3 6 30.04 1017 N/A 0.00 0.00
10:24 am 10:24 Cloudy 69 20.6 63 17.2 81 81 SSW 6 9 30.03 1017 N/A 0.00 0.00
10:38 am 10:38 Cloudy 70 21.1 63 17.2 79 79 Calm 30.03 1017 N/A 0.00 0.00
10:53 am 10:53 Cloudy 70 21.1 62 16.7 76 76 S 8 13 30.05 1018 N/A 0.00 0.00
11:34 am 11:34 Cloudy 72 22.2 63 17.2 73 73 S 7 11 30.03 1017 N/A 0.00 0.00
11:53 am 11:53 Cloudy 72 22.2 62 16.7 71 71 SSW 3 6 30.04 1017 N/A 0.00 0.00
12:16 pm 12:16 Cloudy 74 23.3 63 17.2 69 69 undefined N/A 30.00 1016 N/A 0.00 0.00
12:53 pm 12:53 Mostly Cloudy 75 23.9 62 16.7 64 64 SE 5 7 30.02 1017 N/A 0.00 0.00
1:53 pm 13:53 Mostly Cloudy 75 23.9 61 16.1 62 62 Calm 30.01 1016 N/A 0.00 0.00
2:53 pm 14:53 Mostly Sunny 76 24.4 62 16.7 62 62 Calm 30.00 1016 10 16 0.00 0.00
3:53 pm 15:53 Partly Cloudy 77 25 60 15.6 56 56 SW 5 7 29.98 1015 10 16 0.00 0.00
4:53 pm 16:53 Mostly Cloudy 78 25.6 60 15.6 54 54 SSW 6 9 29.98 1015 10 16 0.00 0.00
5:53 pm 17:53 Partly Cloudy 77 25 61 16.1 58 58 SSE 8 13 29.98 1015 10 16 0.00 0.00
6:53 pm 18:53 Sunny 73 22.8 62 16.7 69 69 SSE 5 7 29.99 1016 10 16 0.00 0.00
7:53 pm 19:53 Clear 71 21.7 61 16.1 71 71 SE 3 6 30.00 1016 10 16 0.00 0.00
8:53 pm 20:53 Mostly Clear 69 20.6 62 16.7 78 78 SE 3 6 30.02 1017 10 16 0.00 0.00
9:53 pm 21:53 Mostly Clear 67 19.4 61 16.1 81 81 ESE 3 6 30.03 1017 10 16 0.00 0.00
10:53 pm 22:53 Clear 67 19.4 62 16.7 84 84 Calm 30.03 1017 10 16 0.00 0.00
11:53 pm 23:53 Clear 66 18.9 61 16.1 84 84 Calm 30.03 1017 10 16 0.00 0.00

Powered by AerisWeather